Sigil TimeFrame

99 2020-05-30 22:40:06
NameTime LeftWindow Opens
Skybrine The Inescapable2d 10:392020-05-29 13:56:00
Windstrike The Vile1d 14:212020-05-30 10:14:00
Beast of Cards1d 05:462020-05-30 18:49:00
Crolvak, the Fire Master1d 00:052020-05-31 00:30:00
Noxious Slug0d 18:332020-05-31 06:02:00
Lord Xordam0d 16:272020-05-31 08:08:00
Detox0d 15:582020-05-31 08:37:00
Shadow0d 09:122020-05-31 15:23:00
Quiver, The Renegade0d 08:412020-05-31 15:54:00
Archdevil Yirkon0d 08:022020-05-31 16:33:00
Animated Captain0d 07:512020-05-31 16:44:00
Old World Drake0d 07:462020-05-31 16:49:00
Synge, The Red Dragon0d 07:382020-05-31 16:57:00
Murderface0d 07:062020-05-31 17:29:00
Terrance, Rebel of Rallis0d 06:562020-05-31 17:39:00
Freezebreed, The Frozen Manipulator0d 06:532020-05-31 17:42:00
Smoot the Yeti0d 06:452020-05-31 17:50:00
Tylos, The Lord Master0d 05:462020-05-31 18:49:00
Varsanor, Master of Darkness0d 05:032020-05-31 19:32:00
Vitkros, Hydra of the Deep0d 03:082020-05-31 21:27:00
Zikkir the Dark Archer0d 02:302020-05-31 22:05:00
Gnorb0d 01:572020-05-31 22:38:00
Ormsul the Putrid0d 00:182020-06-01 00:17:00
Anguish0d 02:312020-06-01 03:07:00
Melt Bane, The Forbidden Demon Dragon0d 03:462020-06-01 04:22:00
Pinosis0d 04:132020-06-01 04:49:00
Wanhiroeaz the Devourer0d 04:552020-06-01 05:31:00
Hyrak, Bringer of Nightmares0d 05:042020-06-01 05:40:00
Ebliss, Fallen Angel of Despair0d 06:072020-06-01 06:43:00
Rancid, Lord of Thugs0d 06:342020-06-01 07:10:00
Mistress of the Sword0d 06:372020-06-01 07:13:00
Lord Varan0d 07:442020-06-01 08:20:00
Brutalitar, Lord of the Underworld0d 08:102020-06-01 08:46:00
Emperor Neudeus, Controller of the Universe0d 08:552020-06-01 09:31:00
Ganja the Stone Golem0d 09:442020-06-01 10:20:00
Ag Nabak the Abomination0d 09:512020-06-01 10:27:00
Lord Narada0d 10:492020-06-01 11:25:00
Sarcrina the Astral Priestess0d 12:382020-06-01 13:14:00
Lady Chaos, Queen of the Abyss0d 13:452020-06-01 14:21:00
Garland, The Lord Keeper0d 13:512020-06-01 14:27:00
Crane0d 14:292020-06-01 15:05:00
Baron Mu, Dark Rider of the Undead0d 17:412020-06-01 18:17:00
Sigil, Lich of Woe0d 17:502020-06-01 18:26:00
Rotborn, Eater of the Dead0d 18:272020-06-01 19:03:00
Traxodon the Plaguebringer0d 22:502020-06-01 23:26:00
Ancient Magus Tarkin1d 00:532020-06-02 01:29:00
Bolkor, the Holy Master1d 01:022020-06-02 01:38:00
Bloodchill the Grizzly1d 01:132020-06-02 01:49:00
Volgan the Living Ironbark1d 04:152020-06-02 04:51:00
Threk, King of Lords1d 04:302020-06-02 05:06:00
The Emerald Assassin1d 05:472020-06-02 06:23:00
Lord Suka1d 06:142020-06-02 06:50:00
Nessam1d 06:382020-06-02 07:14:00
Tsort1d 07:272020-06-02 08:03:00
King Ashnar, Lord of the Unliving1d 07:462020-06-02 08:22:00
Lady Ariella1d 08:312020-06-02 09:07:00
Jorun the Blazing Swordsman1d 08:442020-06-02 09:20:00
Dlanod, the Crazed Chancellor1d 09:392020-06-02 10:15:00
Hackerphage, Protector of the Gateway1d 11:242020-06-02 12:00:00
Jazzmin, Maiden of Vitality1d 11:412020-06-02 12:17:00
Numerocure, The Black Messenger of Evil1d 14:122020-06-02 14:48:00
Lord Sibannac1d 14:242020-06-02 15:00:00
Amalgamated Apparition1d 17:552020-06-02 18:31:00
Felroc, Overseer of Hellfire1d 18:212020-06-02 18:57:00
Gorganus of the Wood1d 19:422020-06-02 20:18:00
Keeper of Nature1d 21:422020-06-02 22:18:00
Nayark the Mummified Sorcerer1d 22:222020-06-02 22:58:00
Kro Shuk, Doomslayer1d 23:542020-06-03 00:30:00
Dreg nor, Keeper of the Infernal Essence2d 01:042020-06-03 01:40:00
Slashbrood, Devourer of the Blackness2d 03:312020-06-03 04:07:00
Samatha Dark-Soul2d 03:322020-06-03 04:08:00
Zertan, The Collector2d 04:032020-06-03 04:39:00
Kretok, Descendant of Nature2d 06:512020-06-03 07:27:00
Karvaz, Lord of Alsayic2d 07:302020-06-03 08:06:00
Nar Zhul, Slayer of All2d 10:012020-06-03 10:37:00
Akkel the Enflamed Warrior2d 10:532020-06-03 11:29:00
Murfax, Beast of the Caves2d 12:112020-06-03 12:47:00
Grivvek, Protector of the Brood2d 19:022020-06-03 19:38:00
Lacuste of the Swarm2d 19:462020-06-03 20:22:00
Nafir, God of Desolation2d 20:522020-06-03 21:28:00
Raiyar, the Shadow Master2d 21:562020-06-03 22:32:00
Howldroid, Tormentor of the Pit3d 00:262020-06-04 01:02:00
Gregov, Knight of the Woods3d 02:062020-06-04 02:42:00
Esquin, the Kinetic Master3d 06:012020-06-04 06:37:00
Jade Dragonite3d 07:492020-06-04 08:25:00
Great Lord Ganeshan3d 08:162020-06-04 08:52:00
Sylvanna TorLai3d 09:082020-06-04 09:44:00
Straya, the Underworld Ruler3d 10:382020-06-04 11:14:00
Crantos, Defender of Ultimation3d 13:142020-06-04 13:50:00
Balerion, Dragon of Dread3d 19:262020-06-04 20:02:00
Q-SEC Commander3d 22:492020-06-04 23:25:00
Xynak, the Arcane Master3d 23:082020-06-04 23:44:00
Skarthul the Avenged4d 02:532020-06-05 03:29:00
Anvilfist4d 07:302020-06-05 08:06:00
Dexor, Victor of Veldara4d 13:022020-06-05 13:38:00
Viserion, the Necrodragon4d 15:102020-06-05 15:46:00
Thanox, Balancer of Chaos8d 09:462020-06-09 10:22:00
Shaik, Servant of Arkron184d 10:262019-11-29 14:09:00
Rook, Hand of Arkron182d 14:422019-12-01 09:53:00